Home > Weather > Cleveland > Past weeks

Flag for USA Past Weather in Cleveland, Ohio, USA — Yesterday and Last 2 Weeks

Now
78 °F

Clear.


Feels Like: 80 °F
Forecast: 68 / 83 °F
Wind: 8 mph from West

Location: Cleveland-Hopkins International Airport

Current Time: Aug 26, 2016 at 1:21:17 AM

Latest Report: Aug 26, 2016 at 12:51 AM


Visibility: 10 mi

Pressure: 30.03 "Hg

Humidity: 74%

Dew Point: 69 °F

Location of ClevelandLocation

Past Weather in Cleveland — Graph

°F

Cleveland Temperature Yesterday

Maximum temperature yesterday: 91 °F (at 3:51 PM)
Minimum temperature yesterday: 74 °F (at 6:51 AM)
Average temperature yesterday: 80 °F

High & Low Weather Summary for the Past Weeks

 TemperatureHumidityPressure
High91 °F (Aug 11, 12:51 PM)91% (Aug 14, 7:01 AM)30.32 "Hg (Aug 14, 7:01 AM)
Low59 °F (Aug 23, 4:51 AM)38% (Aug 23, 1:51 PM)29.68 "Hg (Aug 20, 11:51 PM)
Average77 °F70%30.02 "Hg
* Reported Aug 10 11:51 PM — Aug 25 11:51 PM, Cleveland, Weather by CustomWeather, © 2016

Note: Actual official high and low records may vary slightly from our data, if they occured in-between our weather recording intervals... More about our weather records

Advertising

Cleveland Weather History for the Previous 24 Hours

Scroll right to see more
 ConditionsComfort  
Time TempWeatherWind HumidityBarometerVisibility
11:51 PM
Thu, Aug 25
80 °FPassing clouds.10 mph69%30.02 "Hg10 mi
10:51 PM81 °FPassing clouds.9 mph65%30.01 "Hg10 mi
9:51 PM81 °FPassing clouds.6 mph62%30.01 "Hg10 mi
8:51 PM83 °FScattered clouds.9 mph59%30.00 "Hg10 mi
7:51 PM84 °FScattered clouds.13 mph59%29.98 "Hg10 mi
6:51 PM81 °FBroken clouds.6 mph74%29.97 "Hg10 mi
5:59 PM83 °FStrong thunderstorms. Broken clouds.17 mph68%29.99 "Hg3 mi
5:51 PM88 °FBroken clouds.10 mph52%29.95 "Hg10 mi
4:51 PM91 °FScattered clouds.22 mph49%29.96 "Hg10 mi
3:51 PM91 °FBroken clouds.13 mph50%29.97 "Hg10 mi
2:51 PM90 °FScattered clouds.13 mph48%29.98 "Hg10 mi
1:51 PM88 °FBroken clouds.14 mph55%29.99 "Hg10 mi
12:51 PM85 °FBroken clouds.7 mph63%30.02 "Hg10 mi
11:51 AM82 °FBroken clouds.7 mph72%30.03 "Hg10 mi
10:51 AM79 °FOvercast.9 mph77%30.03 "Hg10 mi
9:51 AM77 °FMore clouds than sun.6 mph79%30.03 "Hg10 mi
8:51 AM76 °FPartly sunny.8 mph82%30.04 "Hg10 mi
7:51 AM74 °FLow clouds.6 mph88%30.02 "Hg9 mi
7:04 AM74 °FPassing clouds.7 mph88%30.04 "Hg8 mi
6:51 AM74 °FPassing clouds.7 mph88%30.02 "Hg8 mi
5:56 AM75 °FPartly cloudy.6 mph88%30.03 "Hg10 mi
5:03 AM75 °FMostly cloudy.8 mph88%30.02 "Hg10 mi
4:51 AM75 °FLow clouds.8 mph88%30.00 "Hg10 mi
4:00 AM75 °FMostly cloudy.10 mph88%30.00 "Hg10 mi
3:51 AM75 °FPartly cloudy.10 mph88%29.97 "Hg10 mi
2:51 AM75 °FPartly cloudy.10 mph85%29.98 "Hg10 mi
1:51 AM75 °FOvercast.10 mph85%29.97 "Hg10 mi
1:02 AM75 °FLight rain. Fog.14 mph88%30.00 "Hg4 mi
Weather by CustomWeather, © 2016

See weather overviewHow to use our weather pages